Location: Brachstadt
(48.6975°N, 10.6755°E)
Time: 06:28:39
(UTC+00:00)

Cosmos 1603 - Pass Details

Date: 18 September 2020
Orbit: 832 x 858 km, 71.0° (Epoch: 27 October)

Event Time Altitude Azimuth Distance (km) Brightness Sun altitude
Rises 18:21:39 0° 329° (NNW) 3,421 7.6 -10.4°
Reaches altitude 10° 18:24:09 10° 325° (NW) 2,478 6.9 -10.8°
Maximum altitude 18:29:40 54° 249° (WSW) 1,012 4.5 -11.7°
Drops below altitude 10° 18:35:07 10° 173° (S) 2,445 5.9 -12.5°
Sets 18:37:35 0° 169° (S) 3,372 6.5 -12.9°
